FW2998 Weather Reports


time (UTC)temp
F
wind
direction
speed
knots
gust
knots
rain 1hr
in
rain 24hr
in
rain mn
in
humidity
%
barometer
mb
20260831152026 84 0 0.0 0.0 0.00 0.00 0.00 75 1021.2
20260831151546 84 0 0.0 0.0 0.00 0.00 0.00 77 1021.2
20260831151026 84 0 0.0 0.0 0.00 0.00 0.00 76 1021.1
20260831150524 84 0 0.0 0.0 0.00 0.00 0.00 75 1021.0
20260831150053 85 0 0.0 0.0 0.00 0.00 0.00 76 1021.0
20260831145519 84 0 0.0 0.0 0.00 0.00 0.00 76 1021.0
20260831145021 84 0 0.0 0.0 0.00 0.00 0.00 76 1021.0
20260831144543 86 0 0.0 0.0 0.00 0.00 0.00 73 1021.1
20260831144029 87 0 0.0 0.0 0.00 0.00 0.00 72 1021.1
20260831143526 88 0 0.0 0.0 0.00 0.00 0.00 71 1021.1
20260831143045 88 0 0.0 0.0 0.00 0.00 0.00 73 1021.0
20260831142527 87 0 0.0 0.0 0.00 0.00 0.00 75 1021.0
20260831142025 87 0 0.0 0.0 0.00 0.00 0.00 75 1021.0
20260831141546 86 0 0.0 0.0 0.00 0.00 0.00 75 1021.0
20260831141024 86 0 0.0 0.0 0.00 0.00 0.00 79 1021.0
20260831140525 85 0 0.0 0.0 0.00 0.00 0.00 82 1021.0
20260831140044 84 0 0.0 0.0 0.00 0.00 0.00 83 1021.0
20260831135524 83 0 0.0 0.0 0.00 0.00 0.00 83 1021.0
20260831135024 82 0 0.0 0.0 0.00 0.00 0.00 84 1020.9
20260831134552 81 0 0.0 0.0 0.00 0.00 0.00 88 1020.9
20260831134025 81 0 0.0 0.0 0.00 0.00 0.00 92 1020.9
20260831133527 80 0 0.0 0.0 0.00 0.00 0.00 93 1020.9
20260831133046 80 0 0.0 0.0 0.00 0.00 0.00 95 1020.8
20260831132524 79 0 0.0 0.0 0.00 0.00 0.00 96 1020.9
20260831132025 79 0 0.0 0.0 0.00 0.00 0.00 96 1021.1
20260831131555 79 0 0.0 0.0 0.00 0.00 0.00 97 1021.0
20260831131025 78 0 0.0 0.0 0.00 0.00 0.00 97 1021.0
20260831130524 78 0 0.0 0.0 0.00 0.00 0.00 97 1021.0
20260831130047 77 0 0.0 0.0 0.00 0.00 0.00 97 1021.0
20260831125523 77 0 0.0 0.0 0.00 0.00 0.00 97 1020.9
20260831125025 76 0 0.0 0.0 0.00 0.00 0.00 97 1020.9
20260831124544 75 0 0.0 0.0 0.00 0.00 0.00 98 1020.9
20260831124025 74 0 0.0 0.0 0.00 0.00 0.00 97 1020.8
20260831123526 73 0 0.0 0.0 0.00 0.00 0.00 97 1020.7
20260831123046 73 0 0.0 0.0 0.00 0.00 0.00 96 1020.7
20260831122526 72 0 0.0 0.0 0.00 0.00 0.00 96 1020.7
20260831122025 72 0 0.0 0.0 0.00 0.00 0.00 96 1020.7
20260831121546 72 0 0.0 0.0 0.00 0.00 0.00 96 1020.6
20260831121024 72 0 0.0 0.0 0.00 0.00 0.00 96 1020.6
20260831120520 72 0 0.0 0.0 0.00 0.00 0.00 96 1020.6
20260831120043 72 0 0.0 0.0 0.00 0.00 0.00 95 1020.6
20260831115528 71 0 0.0 0.0 0.00 0.00 0.00 95 1020.5
20260831115025 71 0 0.0 0.0 0.00 0.00 0.00 95 1020.6
20260831114544 71 0 0.0 0.0 0.00 0.00 0.00 95 1020.6
20260831114025 71 0 0.0 0.0 0.00 0.00 0.00 95 1020.7
20260831113524 71 0 0.0 0.0 0.00 0.00 0.00 95 1020.6
20260831113046 71 0 0.0 0.0 0.00 0.00 0.00 95 1020.7
20260831112524 71 0 0.0 0.0 0.00 0.00 0.00 95 1020.7
20260831112024 71 0 0.0 0.0 0.00 0.00 0.00 95 1020.6
20260831111551 71 0 0.0 0.0 0.00 0.00 0.00 95 1020.6
20260831111024 71 0 0.0 0.0 0.00 0.00 0.00 95 1020.5
20260831110523 71 0 0.0 0.0 0.00 0.00 0.00 95 1020.4
20260831110044 71 0 0.0 0.0 0.00 0.00 0.00 95 1020.3
20260831105523 71 0 0.0 0.0 0.00 0.00 0.00 95 1020.3
20260831105024 71 0 0.0 0.0 0.00 0.00 0.00 94 1020.2
20260831104540 71 0 0.0 0.0 0.00 0.00 0.00 94 1020.3
20260831104026 71 0 0.0 0.0 0.00 0.00 0.00 94 1020.2
20260831103523 71 0 0.0 0.0 0.00 0.00 0.00 94 1020.2
20260831103044 71 0 0.0 0.0 0.00 0.00 0.00 94 1020.2
20260831102518 71 0 0.0 0.0 0.00 0.00 0.00 94 1020.2
20260831102025 71 0 0.0 0.0 0.00 0.00 0.00 94 1020.2
20260831101546 71 0 0.0 0.0 0.00 0.00 0.00 94 1020.2
20260831101023 72 0 0.0 0.0 0.00 0.00 0.00 94 1020.1
20260831100523 72 0 0.0 0.0 0.00 0.00 0.00 94 1020.2
20260831100103 72 0 0.0 0.0 0.00 0.00 0.00 94 1020.3
20260831095525 72 0 0.0 0.0 0.00 0.00 0.00 94 1020.2
20260831095028 72 0 0.0 0.0 0.00 0.00 0.00 94 1020.3
20260831094547 72 0 0.0 0.0 0.00 0.00 0.00 94 1020.4
20260831094025 72 0 0.0 0.0 0.00 0.00 0.00 94 1020.3
20260831093525 72 0 0.0 0.0 0.00 0.00 0.00 94 1020.4
20260831093052 72 0 0.0 0.0 0.00 0.00 0.00 94 1020.4
20260831092523 72 0 0.0 0.0 0.00 0.00 0.00 94 1020.4
20260831092024 72 0 0.0 0.0 0.00 0.00 0.00 93 1020.2
20260831091543 72 0 0.0 0.0 0.00 0.00 0.00 93 1020.1
20260831091029 72 0 0.0 0.0 0.00 0.00 0.00 93 1020.2
20260831090521 72 0 0.0 0.0 0.00 0.00 0.00 93 1020.2
20260831090052 72 0 0.0 0.0 0.00 0.00 0.00 93 1020.3
20260831085524 72 0 0.0 0.0 0.00 0.00 0.00 93 1020.1
20260831085025 72 0 0.0 0.0 0.00 0.00 0.00 93 1020.1
20260831084544 72 0 0.0 0.0 0.00 0.00 0.00 93 1020.1
20260831084021 72 0 0.0 0.0 0.00 0.00 0.00 93 1020.0
20260831083518 72 0 0.0 0.0 0.00 0.00 0.00 93 1020.1
20260831083102 72 0 0.0 0.0 0.00 0.00 0.00 93 1020.0
20260831082524 72 0 0.0 0.0 0.00 0.00 0.00 93 1019.9
20260831082023 72 0 0.0 0.0 0.00 0.00 0.00 93 1019.9
20260831081554 72 0 0.0 0.0 0.00 0.00 0.00 93 1019.9
20260831081027 72 0 0.0 0.0 0.00 0.00 0.00 93 1019.9
20260831080523 72 0 0.0 0.0 0.00 0.00 0.00 93 1019.8
20260831080114 72 0 0.0 0.0 0.00 0.00 0.00 93 1019.8
20260831075525 73 0 0.0 0.0 0.00 0.00 0.00 93 1019.9
20260831075024 73 0 0.0 0.0 0.00 0.00 0.00 93 1019.8
20260831074545 73 0 0.0 0.0 0.00 0.00 0.00 93 1019.7
20260831074019 73 0 0.0 0.0 0.00 0.00 0.00 93 1019.8
20260831073523 73 0 0.0 0.0 0.00 0.00 0.00 93 1019.8
20260831073051 73 0 0.0 0.0 0.00 0.00 0.00 93 1019.7
20260831072525 73 0 0.0 0.0 0.00 0.00 0.00 93 1019.8
20260831072025 73 0 0.0 0.0 0.00 0.00 0.00 93 1019.9
20260831071546 73 0 0.0 0.0 0.00 0.00 0.00 93 1019.8
20260831071024 73 0 0.0 0.0 0.00 0.00 0.00 93 1019.8
20260831070524 73 0 0.0 0.0 0.00 0.00 0.00 93 1019.9
20260831070051 73 0 0.0 0.0 0.00 0.00 0.00 93 1020.0
20260831065526 73 0 0.0 0.0 0.00 0.00 0.00 93 1020.0
20260831065022 74 0 0.0 0.0 0.00 0.00 0.00 93 1020.1
20260831064544 73 0 0.0 0.0 0.00 0.00 0.00 93 1020.1
20260831064023 73 0 0.0 0.0 0.00 0.00 0.00 92 1020.1
20260831063522 74 0 0.0 0.0 0.00 0.00 0.00 92 1020.2
20260831063046 74 0 0.0 0.0 0.00 0.00 0.00 92 1020.3
20260831062524 74 0 0.0 0.0 0.00 0.00 0.00 92 1020.3
20260831062024 74 0 0.0 0.0 0.00 0.00 0.00 92 1020.3
20260831061544 74 0 0.0 0.0 0.00 0.00 0.00 92 1020.2
20260831061024 74 0 0.0 0.0 0.00 0.00 0.00 92 1020.2
20260831060525 74 0 0.0 0.0 0.00 0.00 0.00 92 1020.3
20260831060053 74 0 0.0 0.0 0.00 0.00 0.00 92 1020.3
20260831055523 74 0 0.0 0.0 0.00 0.00 0.00 92 1020.3
20260831055024 74 0 0.0 0.0 0.00 0.00 0.00 92 1020.3
20260831054544 74 0 0.0 0.0 0.00 0.00 0.00 92 1020.3
20260831054025 74 0 0.0 0.0 0.00 0.00 0.00 92 1020.3
20260831053525 74 0 0.0 0.0 0.00 0.00 0.00 92 1020.3
20260831053123 74 0 0.0 0.0 0.00 0.00 0.00 92 1020.5
20260831052525 74 0 0.0 0.0 0.00 0.00 0.00 92 1020.5
20260831052023 74 0 0.0 0.0 0.00 0.00 0.00 92 1020.5
20260831051544 75 0 0.0 0.0 0.00 0.00 0.00 92 1020.5
20260831051021 75 0 0.0 0.0 0.00 0.00 0.00 91 1020.6
20260831050525 75 0 0.0 0.0 0.00 0.00 0.00 91 1020.6
20260831050045 75 0 0.0 0.0 0.00 0.00 0.00 91 1020.7
20260831045522 75 0 0.0 0.0 0.00 0.00 0.00 91 1020.6
20260831045028 75 0 0.0 0.0 0.00 0.00 0.00 91 1020.5
20260831044635 75 0 0.0 0.0 0.00 0.00 0.00 91 1020.6
20260831044023 75 0 0.0 0.0 0.00 0.00 0.00 91 1020.6
20260831043524 75 0 0.0 0.0 0.00 0.00 0.00 91 1020.6
20260831043048 75 0 0.0 0.0 0.00 0.00 0.00 91 1020.6
20260831042519 75 0 0.0 0.0 0.00 0.00 0.00 91 1020.6
20260831042019 75 0 0.0 0.0 0.00 0.00 0.00 91 1020.5
20260831041544 76 0 0.0 0.0 0.00 0.00 0.00 91 1020.5
20260831041024 75 0 0.0 0.0 0.00 0.00 0.00 91 1020.5
20260831040524 75 0 0.0 0.0 0.00 0.00 0.00 90 1020.5
20260831040044 76 0 0.0 0.0 0.00 0.00 0.00 90 1020.6
20260831035524 76 0 0.0 0.0 0.00 0.00 0.00 90 1020.6
20260831035024 76 0 0.0 0.0 0.00 0.00 0.00 90 1020.7
20260831034545 76 0 0.0 0.0 0.00 0.00 0.00 90 1020.7
20260831034024 76 0 0.0 0.0 0.00 0.00 0.00 90 1020.7
20260831033523 76 0 0.0 0.0 0.00 0.00 0.00 90 1020.8
20260831033054 76 0 0.0 0.0 0.00 0.00 0.00 90 1020.8
20260831032525 76 0 0.0 0.0 0.00 0.00 0.00 89 1020.8
20260831032025 76 0 0.0 0.0 0.00 0.00 0.00 89 1020.8
20260831031544 76 0 0.0 0.0 0.00 0.00 0.00 89 1020.9
20260831031019 76 0 0.0 0.0 0.00 0.00 0.00 89 1020.7
20260831030525 76 0 0.0 0.0 0.00 0.00 0.00 89 1020.7
20260831030043 76 0 0.0 0.0 0.00 0.00 0.00 89 1020.6
20260831025525 77 0 0.0 0.0 0.00 0.00 0.00 88 1020.6
20260831025026 77 0 0.0 0.0 0.00 0.00 0.00 88 1020.6
20260831024542 77 0 0.0 0.0 0.00 0.00 0.00 88 1020.6
20260831024024 77 0 0.0 0.0 0.00 0.00 0.00 88 1020.5
20260831023518 77 0 0.0 0.0 0.00 0.00 0.00 88 1020.6
20260831023045 77 0 0.0 0.0 0.00 0.00 0.00 88 1020.6
20260831022518 77 0 0.0 0.0 0.00 0.00 0.00 88 1020.6
20260831022025 77 0 0.0 0.0 0.00 0.00 0.00 88 1020.6
20260831021543 77 0 0.0 0.0 0.00 0.00 0.00 87 1020.6
20260831021019 78 0 0.0 0.0 0.00 0.00 0.00 87 1020.5
20260831020523 78 0 0.0 0.0 0.00 0.00 0.00 87 1020.5
20260831020044 78 0 0.0 0.0 0.00 0.00 0.00 87 1020.5
20260831015520 78 0 0.0 0.0 0.00 0.00 0.00 87 1020.5
20260831015024 78 0 0.0 0.0 0.00 0.00 0.00 86 1020.5
20260831014546 78 0 0.0 0.0 0.00 0.00 0.00 86 1020.4
20260831014025 78 0 0.0 0.0 0.00 0.00 0.00 86 1020.5
20260831013519 79 0 0.0 0.0 0.00 0.00 0.00 85 1020.5
20260831013046 79 0 0.0 0.0 0.00 0.00 0.00 85 1020.4
20260831012523 79 0 0.0 0.0 0.00 0.00 0.00 85 1020.4
20260831012021 79 0 0.0 0.0 0.00 0.00 0.00 84 1020.3
20260831011552 79 0 0.0 0.0 0.00 0.00 0.00 84 1020.3
20260831011024 79 0 0.0 0.0 0.00 0.00 0.00 83 1020.3
20260831010518 79 0 0.0 0.0 0.00 0.00 0.00 83 1020.3
20260831010058 80 0 0.0 0.0 0.00 0.00 0.00 83 1020.3
20260831005524 80 0 0.0 0.0 0.00 0.00 0.00 82 1020.2
20260831005026 80 0 0.0 0.0 0.00 0.00 0.00 82 1020.2
20260831004544 80 0 0.0 0.0 0.00 0.00 0.00 81 1020.2
20260831004021 81 0 0.0 0.0 0.00 0.00 0.00 81 1020.2
20260831003522 81 0 0.0 0.0 0.00 0.00 0.00 81 1020.1
20260831003044 81 0 0.0 0.0 0.00 0.00 0.00 80 1020.2
20260831002524 81 0 0.0 0.0 0.00 0.00 0.00 80 1020.1
20260831002024 81 0 0.0 0.0 0.00 0.00 0.00 80 1020.1
20260831001543 82 0 0.0 0.0 0.00 0.00 0.00 79 1020.1
20260831001024 82 0 0.0 0.0 0.00 0.00 0.00 78 1020.0
20260831000524 82 0 0.0 0.0 0.00 0.00 0.00 78 1020.0
20260831000048 82 0 0.0 0.0 0.00 0.00 0.00 77 1019.9
20260830235518 83 0 0.0 0.0 0.00 0.00 0.00 77 1019.8
20260830235021 83 0 0.0 0.0 0.00 0.00 0.00 76 1019.8
20260830234544 83 0 0.0 0.0 0.00 0.00 0.00 76 1019.7
20260830234019 84 0 0.0 0.0 0.00 0.00 0.00 76 1019.7
20260830233519 84 0 0.0 0.0 0.00 0.00 0.00 75 1019.8
20260830233044 84 0 0.0 0.0 0.00 0.00 0.00 75 1019.7
20260830232524 84 0 0.0 0.0 0.00 0.00 0.00 75 1019.7
20260830232024 84 0 0.0 0.0 0.00 0.00 0.00 75 1019.7
20260830231549 84 0 0.0 0.0 0.00 0.00 0.00 74 1019.7
20260830231019 85 0 0.0 0.0 0.00 0.00 0.00 74 1019.7
20260830230519 85 0 0.0 0.0 0.00 0.00 0.00 74 1019.7
20260830230046 85 0 0.0 0.0 0.00 0.00 0.00 74 1019.7
20260830225524 85 0 0.0 0.0 0.00 0.00 0.00 74 1019.7
20260830225019 85 0 0.0 0.0 0.00 0.00 0.00 73 1019.7
20260830224543 86 0 0.0 0.0 0.00 0.00 0.00 73 1019.8
20260830224021 86 0 0.0 0.0 0.00 0.00 0.00 73 1019.8
20260830223521 86 0 0.0 0.0 0.00 0.00 0.00 74 1019.8
20260830223043 86 0 0.0 0.0 0.00 0.00 0.00 74 1019.8
20260830222520 86 0 0.0 0.0 0.00 0.00 0.00 73 1019.7
20260830222024 86 0 0.0 0.0 0.00 0.00 0.00 73 1019.6
20260830221547 87 0 0.0 0.0 0.00 0.00 0.00 72 1019.6
20260830221026 87 0 0.0 0.0 0.00 0.00 0.00 73 1019.6
20260830220524 87 0 0.0 0.0 0.00 0.00 0.00 71 1019.6
20260830220046 88 0 0.0 0.0 0.00 0.00 0.00 70 1019.6
20260830215525 88 0 0.0 0.0 0.00 0.00 0.00 69 1019.5
20260830215024 88 0 0.0 0.0 0.00 0.00 0.00 69 1019.5
20260830214544 88 0 0.0 0.0 0.00 0.00 0.00 70 1019.6
20260830214022 88 0 0.0 0.0 0.00 0.00 0.00 69 1019.6
20260830213526 88 0 0.0 0.0 0.00 0.00 0.00 67 1019.6
20260830213058 88 0 0.0 0.0 0.00 0.00 0.00 69 1019.6
20260830212523 88 0 0.0 0.0 0.00 0.00 0.00 70 1019.5
20260830212023 88 0 0.0 0.0 0.00 0.00 0.00 71 1019.5
20260830211542 87 0 0.0 0.0 0.00 0.00 0.00 72 1019.6
20260830211025 86 0 0.0 0.0 0.00 0.00 0.00 71 1019.6
20260830210525 86 0 0.0 0.0 0.00 0.00 0.00 71 1019.7
20260830210046 86 0 0.0 0.0 0.00 0.00 0.00 71 1019.8
20260830205527 86 0 0.0 0.0 0.00 0.00 0.00 72 1019.8
20260830205024 85 0 0.0 0.0 0.00 0.00 0.00 72 1019.9
20260830204543 86 0 0.0 0.0 0.00 0.00 0.00 72 1020.0
20260830204023 86 0 0.0 0.0 0.00 0.00 0.00 72 1020.1
20260830203524 86 0 0.0 0.0 0.00 0.00 0.00 75 1020.0
20260830203046 85 0 0.0 0.0 0.00 0.00 0.00 75 1020.0
20260830202523 86 0 0.0 0.0 0.00 0.00 0.00 74 1020.1
20260830202023 86 0 0.0 0.0 0.00 0.00 0.00 73 1020.2
20260830201543 86 0 0.0 0.0 0.00 0.00 0.00 75 1020.3
20260830201022 87 0 0.0 0.0 0.00 0.00 0.00 71 1020.3
20260830200525 87 0 0.0 0.0 0.00 0.00 0.00 72 1020.3
20260830200043 87 0 0.0 0.0 0.00 0.00 0.00 72 1020.4
20260830195520 87 0 0.0 0.0 0.00 0.01 0.00 74 1020.4
20260830195024 87 0 0.0 0.0 0.00 0.01 0.00 72 1020.4
20260830194547 87 0 0.0 0.0 0.00 0.01 0.00 71 1020.5
20260830194023 87 0 0.0 0.0 0.00 0.01 0.00 72 1020.5
20260830193523 87 0 0.0 0.0 0.00 0.01 0.00 74 1020.6
20260830193044 87 0 0.0 0.0 0.00 0.01 0.00 74 1020.6
20260830192523 87 0 0.0 0.0 0.00 0.01 0.00 73 1020.6
20260830192024 87 0 0.0 0.0 0.00 0.01 0.00 74 1020.7
20260830191542 87 0 0.0 0.0 0.00 0.01 0.00 73 1020.7
20260830191025 87 0 0.0 0.0 0.00 0.01 0.00 77 1020.9
20260830190525 86 0 0.0 0.0 0.00 0.01 0.00 73 1020.9
20260830190044 86 0 0.0 0.0 0.00 0.01 0.00 73 1020.9
20260830185524 86 0 0.0 0.0 0.00 0.13 0.00 71 1021.0
20260830185024 86 0 0.0 0.0 0.00 0.13 0.00 75 1021.2
20260830184549 85 0 0.0 0.0 0.00 0.13 0.00 75 1021.2
20260830184023 85 0 0.0 0.0 0.00 0.13 0.00 74 1021.3
20260830183523 85 0 0.0 0.0 0.00 0.13 0.00 74 1021.3
20260830183044 85 0 0.0 0.0 0.00 0.13 0.00 74 1021.3
20260830182527 86 0 0.0 0.0 0.00 0.13 0.00 73 1021.3
20260830182023 87 0 0.0 0.0 0.00 0.13 0.00 73 1021.3
20260830181544 86 0 0.0 0.0 0.00 0.13 0.00 73 1021.3
20260830181025 85 0 0.0 0.0 0.00 0.13 0.00 74 1021.4
20260830180529 85 0 0.0 0.0 0.00 0.13 0.00 77 1021.4
20260830180042 85 0 0.0 0.0 0.00 0.13 0.00 75 1021.5
20260830175523 84 0 0.0 0.0 0.00 0.13 0.00 77 1021.6
20260830175025 83 0 0.0 0.0 0.00 0.13 0.00 78 1021.5
20260830174544 84 0 0.0 0.0 0.00 0.13 0.00 76 1021.6
20260830174025 84 0 0.0 0.0 0.00 0.13 0.00 76 1021.6
20260830173524 84 0 0.0 0.0 0.00 0.13 0.00 76 1021.7
20260830173043 84 0 0.0 0.0 0.00 0.13 0.00 76 1021.8
20260830172525 84 0 0.0 0.0 0.00 0.13 0.00 77 1021.8
20260830172026 84 0 0.0 0.0 0.00 0.13 0.00 77 1021.9
20260830171543 84 0 0.0 0.0 0.00 0.13 0.00 77 1022.0
20260830171023 84 0 0.0 0.0 0.00 0.13 0.00 76 1022.2
20260830170525 83 0 0.0 0.0 0.00 0.13 0.00 78 1022.4
20260830170047 84 0 0.0 0.0 0.00 0.13 0.00 76 1022.5
20260830165524 84 0 0.0 0.0 0.00 0.13 0.00 78 1022.5
20260830165025 84 0 0.0 0.0 0.00 0.13 0.00 77 1022.6
20260830164546 84 0 0.0 0.0 0.00 0.13 0.00 79 1022.6
20260830164024 84 0 0.0 0.0 0.00 0.13 0.00 77 1022.7
20260830163524 84 0 0.0 0.0 0.00 0.13 0.00 81 1022.7
20260830163046 83 0 0.0 0.0 0.00 0.13 0.00 78 1022.8
20260830162523 82 0 0.0 0.0 0.00 0.13 0.00 80 1022.9
20260830162023 82 0 0.0 0.0 0.00 0.13 0.00 81 1023.0
20260830161558 82 0 0.0 0.0 0.00 0.13 0.00 79 1023.1
20260830161026 82 0 0.0 0.0 0.00 0.13 0.00 81 1023.1
20260830160525 82 0 0.0 0.0 0.00 0.13 0.00 84 1023.3
20260830160044 82 0 0.0 0.0 0.00 0.13 0.00 82 1023.4
20260830155525 81 0 0.0 0.0 0.00 0.13 0.00 84 1023.4
20260830155024 80 0 0.0 0.0 0.00 0.13 0.00 84 1023.4
20260830154542 80 0 0.0 0.0 0.00 0.13 0.00 84 1023.4
20260830154021 81 0 0.0 0.0 0.00 0.13 0.00 87 1023.4
20260830153523 79 0 0.0 0.0 0.00 0.13 0.00 92 1023.5
20260830153049 77 0 0.0 0.0 0.00 0.13 0.00 91 1023.6
20260830152523 77 0 0.0 0.0 0.00 0.13 0.00 92 1023.5